When you browse on this site, cookies collect data to enhance your experience and personalize the content and advertising you see.
Visit our Privacy Policy to learn more. By continuing to use the site, you agree to this use of cookies and data.
  • In Czech Republic
  • List of Countries
  • For 7 days
  • Water Temperature
  • Satellite Maps
  • Weather Map
  • Weather Widgets
  • user-avatar
    Login

    Hourly Weather Ozerki

    Today, 23 February, Saturday

    Time Temperature Precipitation Wind Pressure Humidity
    00:00 -12°C° 0.1 mm 5 mps 754 mmHg 86%
    01:00 -13°C° 0 mm 5 mps 755 mmHg 86%
    02:00 -14°C° 0 mm 5 mps 756 mmHg 86%
    03:00 -14°C° 0 mm 4 mps 757 mmHg 86%
    04:00 -15°C° 0 mm 4 mps 757 mmHg 86%
    05:00 -15°C° 0 mm 4 mps 758 mmHg 86%
    06:00 -16°C° 0 mm 4 mps 758 mmHg 87%
    07:00 -16°C° 0 mm 4 mps 759 mmHg 85%
    08:00 -16°C° 0 mm 4 mps 759 mmHg 84%
    09:00 -17°C° 0 mm 4 mps 760 mmHg 83%
    10:00 -15°C° 0 mm 3 mps 760 mmHg 79%
    11:00 -14°C° 0 mm 3 mps 761 mmHg 76%
    12:00 -13°C° 0 mm 3 mps 761 mmHg 72%
    13:00 -12°C° 0 mm 3 mps 761 mmHg 70%
    14:00 -12°C° 0 mm 3 mps 761 mmHg 69%
    15:00 -10°C° 0 mm 3 mps 761 mmHg 68%
    16:00 -10°C° 0 mm 2 mps 761 mmHg 73%
    17:00 -12°C° 0 mm 2 mps 761 mmHg 77%
    18:00 -13°C° 0 mm 2 mps 761 mmHg 82%
    19:00 -14°C° 0 mm 2 mps 761 mmHg 84%
    20:00 -14°C° 0 mm 2 mps 761 mmHg 86%
    21:00 -14°C° 0 mm 2 mps 761 mmHg 88%
    22:00 -14°C° 0 mm 2 mps 761 mmHg 89%
    23:00 -15°C° 0 mm 3 mps 761 mmHg 90%

    Tomorrow, 24 February, Sunday

    Time Temperature Precipitation Wind Pressure Humidity
    00:00 -15°C° 0 mm 3 mps 760 mmHg 91%
    01:00 -14°C° 0 mm 3 mps 760 mmHg 91%
    02:00 -14°C° 0 mm 3 mps 760 mmHg 90%
    03:00 -14°C° 0 mm 3 mps 759 mmHg 90%
    04:00 -13°C° 0 mm 3 mps 759 mmHg 90%
    05:00 -13°C° 0 mm 3 mps 759 mmHg 90%
    06:00 -14°C° 0 mm 4 mps 758 mmHg 90%
    07:00 -12°C° 0.1 mm 4 mps 758 mmHg 90%
    08:00 -12°C° 0.1 mm 4 mps 758 mmHg 90%
    09:00 -11°C° 0.1 mm 4 mps 758 mmHg 90%
    10:00 -10°C° 0.1 mm 4 mps 758 mmHg 88%
    11:00 -8°C° 0.1 mm 3 mps 758 mmHg 87%
    12:00 -8°C° 0.1 mm 3 mps 757 mmHg 86%
    13:00 -7°C° 0.1 mm 3 mps 757 mmHg 86%
    14:00 -7°C° 0.1 mm 3 mps 757 mmHg 86%
    15:00 -6°C° 0.1 mm 3 mps 757 mmHg 87%
    16:00 -6°C° 0.1 mm 3 mps 757 mmHg 89%
    17:00 -6°C° 0.1 mm 3 mps 757 mmHg 91%
    18:00 -5°C° 0.1 mm 2 mps 756 mmHg 93%
    19:00 -6°C° 0 mm 3 mps 756 mmHg 94%
    20:00 -7°C° 0 mm 3 mps 756 mmHg 95%
    21:00 -7°C° 0 mm 3 mps 755 mmHg 96%
    22:00 -6°C° 0 mm 3 mps 755 mmHg 95%
    23:00 -6°C° 0 mm 3 mps 755 mmHg 95%

    Day after tomorrow, 25 February, Monday

    Time Temperature Precipitation Wind Pressure Humidity
    00:00 -5°C° 0 mm 3 mps 754 mmHg 95%
    01:00 -5°C° 0 mm 3 mps 753 mmHg 95%
    02:00 -5°C° 0 mm 4 mps 753 mmHg 95%
    03:00 -5°C° 0 mm 4 mps 752 mmHg 94%
    04:00 -5°C° 0 mm 4 mps 751 mmHg 94%
    05:00 -5°C° 0 mm 4 mps 750 mmHg 94%
    06:00 -5°C° 0 mm 4 mps 749 mmHg 94%
    07:00 -5°C° 0.1 mm 5 mps 748 mmHg 93%
    08:00 -5°C° 0.1 mm 5 mps 748 mmHg 92%
    09:00 -5°C° 0.1 mm 5 mps 747 mmHg 92%
    10:00 -4°C° 0.5 mm 5 mps 746 mmHg 92%
    11:00 -2°C° 0.5 mm 5 mps 745 mmHg 91%
    12:00 -2°C° 0.5 mm 5 mps 745 mmHg 91%
    13:00 -2°C° 0.2 mm 4 mps 744 mmHg 92%
    14:00 -1°C° 0.2 mm 4 mps 744 mmHg 93%
    15:00 0°C° 0.2 mm 3 mps 743 mmHg 95%
    16:00 0°C° 0 mm 3 mps 743 mmHg 95%
    17:00 -1°C° 0 mm 2 mps 743 mmHg 95%
    18:00 -1°C° 0 mm 2 mps 742 mmHg 95%
    19:00 -2°C° 0 mm 2 mps 742 mmHg 95%
    20:00 -2°C° 0 mm 2 mps 742 mmHg 96%
    21:00 -3°C° 0 mm 2 mps 742 mmHg 96%
    22:00 -3°C° 0.1 mm 2 mps 742 mmHg 96%
    23:00 -3°C° 0.1 mm 2 mps 742 mmHg 97%

    26 February, Tuesday

    Time Temperature Precipitation Wind Pressure Humidity
    00:00 -1°C° 0.1 mm 1 mps 741 mmHg 97%
    01:00 -1°C° 0 mm 1 mps 741 mmHg 97%
    02:00 -2°C° 0 mm 1 mps 741 mmHg 97%
    03:00 -2°C° 0 mm 1 mps 741 mmHg 97%
    04:00 -2°C° 0 mm 1 mps 741 mmHg 97%
    05:00 -2°C° 0 mm 1 mps 740 mmHg 97%
    06:00 -1°C° 0 mm 1 mps 740 mmHg 97%
    07:00 -1°C° 0.1 mm 1 mps 740 mmHg 96%
    08:00 -1°C° 0.1 mm 1 mps 740 mmHg 96%
    09:00 -2°C° 0.1 mm 2 mps 739 mmHg 95%
    10:00 -2°C° 0 mm 2 mps 739 mmHg 94%
    11:00 -1°C° 0 mm 2 mps 739 mmHg 93%
    12:00 -1°C° 0 mm 2 mps 739 mmHg 92%
    13:00 -1°C° 0 mm 2 mps 739 mmHg 91%
    14:00 -1°C° 0 mm 2 mps 740 mmHg 90%
    15:00 -1°C° 0 mm 2 mps 740 mmHg 89%
    16:00 -1°C° 0.1 mm 2 mps 740 mmHg 91%
    17:00 -2°C° 0.1 mm 2 mps 741 mmHg 92%
    18:00 -3°C° 0.1 mm 2 mps 741 mmHg 94%
    19:00 -4°C° 0 mm 2 mps 742 mmHg 95%
    20:00 -4°C° 0 mm 2 mps 742 mmHg 95%
    21:00 -5°C° 0 mm 2 mps 743 mmHg 96%
    22:00 -5°C° 0 mm 2 mps 743 mmHg 96%
    23:00 -6°C° 0 mm 2 mps 743 mmHg 96%

    27 February, Wednesday

    Time Temperature Precipitation Wind Pressure Humidity
    00:00 -6°C° 0 mm 2 mps 744 mmHg 96%
    01:00 -6°C° 0 mm 2 mps 744 mmHg 95%
    02:00 -6°C° 0 mm 2 mps 744 mmHg 95%
    03:00 -7°C° 0 mm 2 mps 745 mmHg 94%
    04:00 -7°C° 0 mm 2 mps 745 mmHg 94%
    05:00 -7°C° 0 mm 2 mps 745 mmHg 94%
    06:00 -7°C° 0 mm 2 mps 745 mmHg 95%
    07:00 -7°C° 0 mm 2 mps 745 mmHg 94%
    08:00 -6°C° 0 mm 2 mps 745 mmHg 93%
    09:00 -6°C° 0 mm 2 mps 745 mmHg 92%
    10:00 -5°C° 0 mm 2 mps 745 mmHg 89%
    11:00 -3°C° 0 mm 1 mps 744 mmHg 87%
    12:00 -2°C° 0 mm 1 mps 744 mmHg 84%
    13:00 -2°C° 0 mm 1 mps 743 mmHg 84%
    14:00 -2°C° 0 mm 1 mps 743 mmHg 83%
    15:00 -1°C° 0 mm 1 mps 742 mmHg 83%
    16:00 -2°C° 0.1 mm 1 mps 742 mmHg 86%
    17:00 -3°C° 0.1 mm 1 mps 742 mmHg 90%
    18:00 -4°C° 0.1 mm 1 mps 741 mmHg 94%
    19:00 -4°C° 0 mm 1 mps 741 mmHg 95%
    20:00 -6°C° 0 mm 1 mps 740 mmHg 95%
    21:00 -7°C° 0 mm 1 mps 740 mmHg 96%
    22:00 -7°C° 0 mm 1 mps 739 mmHg 96%
    23:00 -7°C° 0 mm 1 mps 739 mmHg 96%

    28 February, Thursday

    Time Temperature Precipitation Wind Pressure Humidity
    00:00 -7°C° 0 mm 1 mps 738 mmHg 96%
    01:00 -8°C° 0 mm 1 mps 738 mmHg 96%
    02:00 -8°C° 0 mm 1 mps 737 mmHg 96%
    03:00 -9°C° 0 mm 1 mps 737 mmHg 96%
    04:00 -9°C° 0 mm 1 mps 737 mmHg 96%
    05:00 -9°C° 0 mm 1 mps 736 mmHg 96%
    06:00 -9°C° 0 mm 1 mps 736 mmHg 96%
    07:00 -8°C° 0 mm 1 mps 736 mmHg 95%
    08:00 -8°C° 0 mm 1 mps 735 mmHg 94%
    09:00 -8°C° 0 mm 2 mps 735 mmHg 93%
    10:00 -7°C° 0 mm 2 mps 735 mmHg 91%
    11:00 -6°C° 0 mm 2 mps 735 mmHg 89%
    12:00 -3°C° 0 mm 1 mps 735 mmHg 87%
    13:00 -3°C° 0 mm 1 mps 735 mmHg 86%
    14:00 -4°C° 0 mm 2 mps 734 mmHg 86%
    15:00 -4°C° 0 mm 2 mps 734 mmHg 85%
    16:00 -3°C° 0 mm 1 mps 734 mmHg 88%
    17:00 -3°C° 0 mm 1 mps 734 mmHg 90%
    18:00 -4°C° 0 mm 1 mps 734 mmHg 93%
    19:00 -4°C° 0 mm 1 mps 734 mmHg 94%
    20:00 -6°C° 0 mm 1 mps 734 mmHg 95%
    21:00 -6°C° 0 mm 1 mps 734 mmHg 95%
    22:00 -6°C° 0 mm 1 mps 734 mmHg 96%
    23:00 -7°C° 0 mm 1 mps 734 mmHg 96%
    Show more